Location: Joplin, MO
(37.0842°N, 94.5133°W)
Time: 11:35:13
(UTC+02:00)

Vanguard 3 - Pass Details

Date: 04 April 2023
Orbit: 507 x 3246 km, 33.4° (Epoch: 01 June)

Event Time Altitude Azimuth Distance (km) Brightness Sun altitude
Rises 15:19:10 0° 284° (WNW) 7,161 11.3 15.0°
Reaches altitude 10° 15:24:39 10° 277° (W) 6,184 11.1 16.1°
Maximum altitude 15:40:48 34° 222° (SW) 4,073 10.6 19.3°
Drops below altitude 10° 15:53:26 10° 164° (SSE) 4,804 11.5 21.8°
Sets 15:57:06 0° 155° (SSE) 5,446 11.9 22.5°
